Regional Weather Roundup
Issued by NWS

Home | Current Version | Previous Version | Graphics & Text | Print | Product List | Glossary On
Versions: 1 2 3 4 5 6 7 8 9 10 11 12 13 14 15 16 17 18 19 20 21 22 23 24 25 26 27 28 29 30 31 32 33 34 35 36 37 38 39 40 41 42 43 44 45 46 47 48 49 50
000
ASUS43 KLOT 220106
RWRIL

ILLINOIS REGIONAL WEATHER ROUNDUP
NATIONAL WEATHER SERVICE CHICAGO/ROMEOVILLE IL
800 PM CDT THU AUG 21 2014

NOTE: "FAIR" INDICATES FEW OR NO CLOUDS BELOW 12,000 FEET WITH NO
SIGNIFICANT WEATHER AND/OR OBSTRUCTIONS TO VISIBILITY.

* THESE STATIONS ARE NOT UNDER NWS QUALITY CONTROL. THEY ALSO MAY NOT
  REPORT WEATHER SUCH AS PRECIPITATION OR FOG.

ILZ001-002-007-009-015-016-024-220200-
NORTHWEST ILLINOIS

CITY           SKY/WX    TMP DP  RH WIND       PRES   REMARKS
MOLINE         MOCLDY    81  73  76 CALM      29.87F HX  86
STERLING*      CLOUDY    79  73  83 W5        29.87S HX  82
SAVANNA*       CLOUDY    78  73  83 CALM      29.87R HX  80
$$

ILZ003-004-008-010-011-017-018-220200-
NORTH CENTRAL ILLINOIS

CITY           SKY/WX    TMP DP  RH WIND       PRES   REMARKS
ROCKFORD       CLOUDY    76  73  91 E6        29.89F
FREEPORT*      CLOUDY    74  72  94 CALM      29.91R
ROCHELLE*      CLOUDY    75  73  91 E6        29.89F
DE KALB*       CLOUDY    74  73  96 SE5       29.92S FOG
PERU*          CLOUDY    80  74  80 SW5       29.91R HX  85
$$

ILZ005-006-012>014-019>023-220200-
NORTHEAST ILLINOIS

CITY           SKY/WX    TMP DP  RH WIND       PRES   REMARKS
CHICAGO-OHARE  MOCLDY    76  71  85 S3        29.91R
CHICAGO-MIDWAY CLOUDY    77  74  90 S6        29.90S
AURORA         CLOUDY    76  73  91 CALM      29.91S FOG
LANSING*       MOCLDY    73  72  94 S6        29.92R
JOLIET*        MOCLDY    74  72  91 SE3       29.92R
WAUKEGAN       CLOUDY    72  71  97 SE5       29.92R FOG
DUPAGE AIRPORT MOCLDY    76  74  93 CALM      29.91R
KANKAKEE*      CLOUDY    75  73  92 E6        29.92F
WHEELING       PTCLDY    77  73  87 S5        29.93R
MORRIS*        CLOUDY    76  74  92 SE3       29.91S
ROMEOVILLE*    MOCLDY    75  74  98 S6        29.91F
NORTHERLY ISL    N/A     74  72  93 S3          N/A
$$

LMZ740>746-220200-
SOUTHERN LAKE MICHIGAN

STATION/POSITION SKY/WX   TEMP    WIND        PRES    VSBY  WAVE
                          AIR SEA DIR/SP/G                  HT/PER
                          (F)     (DEG/KT/KT) (MB)    (MI)  (FT/S)
SOUTHERN BUOY              69 68   90/  4/  6 1013.2F         0
WAUKEGAN HARBOR            72     170/  5/  6   N/A
HARRISON CRIB              72     190/  8/  8   N/A
BURNHAM HARBOR             75     200/  5/  7   N/A
CALUMET HARBOR             74     170/  6/  8 1011.7R
BURNS HARBOR               76     180/ 11/ 16   N/A
MICHIGAN CITY              75     130/  9/ 11   N/A
MICHIGAN CITY 6N           74 71  160/  4/  8   N/A           1
ST. JOSEPH                 74 71  120/  6/  8   N/A           1
$$

ILZ025>027-034>036-040-047-049-050-058-095>099-220200-
WEST-CENTRAL ILLINOIS

CITY           SKY/WX    TMP DP  RH WIND       PRES   REMARKS
QUINCY         CLEAR     85  77  77 S3        29.90S HX  95
GALESBURG*     PTCLDY    81  75  82 CALM      29.89F HX  87
MACOMB*        CLEAR     81  77  90 S6        29.90F HX  88
JACKSONVILLE*  CLEAR     85  78  77 SE3       29.92S HX  97
PITTSFIELD*    CLEAR     83  78  82 CALM      29.92R HX  93
$$

ILZ028>032-037-038-041>044-048-051>054-059>061-220200-
CENTRAL ILLINOIS

CITY           SKY/WX    TMP DP  RH WIND       PRES   REMARKS
PONTIAC        PTCLDY    81  77  89 CALM      29.92R HX  88
DECATUR        CLEAR     83  77  82 S8        29.94R HX  92
PEORIA         CLEAR     83  76  79 S5        29.90S HX  91
LACON*         MOCLDY    80  75  85 CALM      29.89S HX  84
LINCOLN*       CLEAR     83  77  81 S3        29.89S HX  92
SPRINGFIELD    CLEAR     84  77  79 S7        29.91F HX  94
TAYLORVILLE    CLEAR     79  77  94 S3        29.93S HX  83
$$

ILZ033-039-045-046-055>057-062-063-220200-
EAST-CENTRAL ILLINOIS

CITY           SKY/WX    TMP DP  RH WIND       PRES   REMARKS
CHAMPAIGN      MOCLDY    80  77  90 S6        29.95R HX  87
DANVILLE*      HVY RAIN  81  76  85 SW7       29.91F HX  87
RANTOUL*       MOCLDY    82  76  81 SW5       29.95S HX  90
MATTOON        PTCLDY    81  75  82 S5        29.95R HX  87
PARIS*         PTCLDY    79  77  94 S5        29.96S HX  83
$$

ILZ079-100>102-220200-
SOUTHWEST ILLINOIS

CITY           SKY/WX    TMP DP  RH WIND       PRES   REMARKS
ALTON          CLEAR     82  79  89 SE7       29.92R HX  93
BELLEVILLE     PTCLDY    83  79  86 E5        29.91S HX  95
CAHOKIA*       PTCLDY    86  78  77 S7        29.90F HX  98
SPARTA*        PTCLDY    84  74  70 S6        29.95R HX  91
$$

ILZ064>066-069>071-074>076-080>082-084>086-088>090-092>094-220200-
SOUTH-CENTRAL ILLINOIS

CITY           SKY/WX    TMP DP  RH WIND       PRES   REMARKS
CARBONDALE     MOCLDY    83  74  74 S10       29.95F HX  89
CAIRO*         MOCLDY    85  74  70 S6        29.97S HX  92
MARION         CLOUDY    84  75  74 S12       29.97S HX  92
MT. VERNON     PTCLDY    81  72  74 S6        29.96R HX  84
CENTRALIA*     PTCLDY    80  73  78 S7        29.95S HX  84
SALEM*         PTCLDY    83  76  78 S5        29.95S HX  92
METROPOLIS*    MOCLDY    83  70  64 S3        29.98R HX  87
$$

ILZ067-068-072-073-078-083-087-091-220200-
SOUTHEAST ILLINOIS

CITY           SKY/WX    TMP DP  RH WIND       PRES   REMARKS
LAWRENCEVILLE  CLEAR     80  74  81 S5        29.96S HX  85
FLORA*         CLEAR     78  74  89 S6        29.96R HX  80
FAIRFIELD*     PTCLDY    81  79  94 S5        29.95S HX  89
HARRISBURG*    CLOUDY    82  76  80 S5        29.98S HX  89
ROBINSON*      CLEAR     80  77  88 S6        29.96R HX  87
CARMI*         MOCLDY    81  77  89 S5        29.96S HX  88
$$

ABBREVIATIONS USED IN REMARKS
   TC - TEMPERATURE IN CELSIUS
  WCI - WIND CHILL INDEX
   HX - HEAT INDEX
  VSB - VISIBILITY
$$




USA.gov is the U.S. government's official web portal to all federal, state and local government web resources and services.